[[{"header":{"parameterUnit":"m.s-1","parameterCategory":1,"la1":30.2991,"la2":30.254,"lo1":-89.0895,"lo2":-89.0444,"dy":0.0017,"dx":0.0017,"nx":28,"ny":28,"refTime":"2024-10-19T03:00:00:Z","depth":0,"parameterNumber":2,"parameterNumberName":"U-component_of_WINDS"},"data":[0,0,0,0,0,0,0,0,0,0,0,0,0,0,0,0,0,0,0,0,0,0,0,0,0,0,0,0,0,0,0,0,0,0,0,0,0,0,0,0,0,0,0,0,0,0,0,0,0,0,0,0,0,0,0,0,0,0,-1.7722,-1.7722,0,-1.7695,-1.7695,-1.7695,-1.7672,-1.7672,-1.7672,-1.7672,-1.7645,-1.7644,-1.7644,0,0,0,0,0,0,0,0,0,0,0,0,0,-1.7755,-1.7754,-1.7722,-1.7722,-1.7721,-1.7695,-1.7695,-1.7695,-1.7672,-1.7672,-1.7672,-1.7672,-1.7645,-1.7644,-1.7644,0,0,0,0,0,0,0,0,0,0,0,0,0,-1.7736,-1.7754,-1.7722,-1.7707,-1.7706,-1.7695,-1.7695,-1.7694,-1.7672,-1.7672,-1.7672,-1.7671,-1.7645,-1.7644,-1.7644,-1.7646,0,0,-1.7641,-1.7641,0,0,0,0,0,0,0,0,-1.7737,-1.7734,-1.771,-1.7708,-1.7706,-1.7687,-1.7697,-1.7678,-1.7673,-1.7685,-1.7672,-1.7671,-1.7659,-1.7657,-1.7653,-1.7645,-1.7644,-1.7641,-1.7641,-1.7641,-1.764,0,0,0,0,0,0,0,-1.7738,-1.7735,-1.7711,-1.7709,-1.7707,-1.7702,-1.7699,-1.7693,-1.7674,-1.7684,-1.7682,-1.7679,-1.7658,-1.7654,-1.7652,-1.7643,-1.7641,-1.7641,-1.764,-1.764,-1.7638,-1.7638,0,0,0,0,0,0,-1.7742,-1.7737,-1.7712,-1.7711,-1.7721,-1.7702,-1.7698,-1.7693,-1.7674,-1.7671,-1.768,-1.7678,-1.7655,-1.7653,-1.7651,-1.7654,-1.7641,-1.764,-1.7639,-1.7637,-1.7638,-1.7638,0,0,0,0,0,0,-1.7742,-1.774,-1.7713,-1.7723,-1.7719,-1.7702,-1.7696,-1.7693,-1.7689,-1.7671,-1.7668,-1.7679,-1.7655,-1.7652,-1.7648,-1.7653,-1.764,-1.7639,-1.7637,-1.7637,-1.7638,-1.7659,0,0,0,0,0,0,-1.7744,-1.774,-1.7741,-1.7723,-1.7719,-1.771,-1.7697,-1.7693,-1.7687,-1.7685,-1.7669,-1.7666,-1.7654,-1.7649,-1.7647,-1.7651,-1.7638,-1.7636,-1.7637,-1.7638,-1.7658,-1.766,-1.7662,0,0,0,0,0,-1.7745,-1.7748,-1.7741,-1.7738,-1.7719,-1.7711,-1.7708,-1.7694,-1.7688,-1.7689,-1.7677,-1.7667,-1.7652,-1.7649,-1.7646,-1.7651,-1.7636,-1.7637,-1.7638,-1.7657,-1.766,-1.7662,0,0,0,0,0,0,-1.7766,-1.7745,-1.7737,-1.7734,-1.7725,-1.7707,-1.7707,-1.7698,-1.7689,-1.7688,-1.7671,-1.7668,-1.7666,-1.7657,-1.7654,-1.7653,-1.7643,-1.7643,-1.7658,-1.7661,-1.7663,-1.7666,-1.7638,0,0,0,0,0,-1.777,-1.7765,-1.7747,-1.7746,-1.7741,-1.7725,-1.7721,-1.7711,-1.77,-1.7696,-1.7684,-1.7674,-1.7668,-1.7664,-1.7656,-1.7656,-1.7653,-1.7658,-1.766,-1.7662,-1.7663,-1.7664,-1.7666,-1.7641,-1.7641,-1.7641,0,0,-1.7779,-1.7767,-1.7764,-1.775,-1.7741,-1.7736,-1.7722,-1.7717,-1.7714,-1.7695,-1.7691,-1.7682,-1.767,-1.7668,-1.7667,-1.7661,-1.7669,-1.7663,-1.7665,-1.7665,-1.7665,-1.7667,-1.767,-1.7642,-1.7641,-1.7641,0,0,-1.7793,-1.7783,-1.7782,-1.7773,-1.776,-1.7749,-1.7749,-1.7733,-1.7727,-1.7722,-1.7708,-1.7704,-1.7692,-1.7685,-1.7679,-1.7691,-1.7681,-1.7689,-1.7701,-1.7702,-1.7704,-1.7706,-1.7711,-1.7713,-1.769,-1.769,-1.769,0,-1.7806,-1.7798,-1.7782,-1.7779,-1.7773,-1.7756,-1.7756,-1.7748,-1.7733,-1.773,-1.7724,-1.771,-1.77,-1.7697,-1.77,-1.7696,-1.7696,-1.7691,-1.7705,-1.7706,-1.7708,-1.7713,-1.7715,-1.7691,-1.7691,-1.7691,-1.769,0,-1.7815,-1.781,-1.781,-1.7797,-1.7791,-1.7789,-1.7774,-1.777,-1.7761,-1.7751,-1.7747,-1.7735,-1.7725,-1.7724,-1.7714,-1.7719,-1.7717,-1.7708,-1.7698,-1.7712,-1.7716,-1.7718,-1.7692,-1.7692,-1.7692,-1.7691,0,0,-1.7842,-1.782,-1.7821,-1.7815,-1.7799,-1.7795,-1.7792,-1.7783,-1.7781,-1.7771,-1.7769,-1.776,-1.7752,-1.7746,-1.7736,-1.7736,-1.7748,-1.7728,-1.7727,-1.7733,-1.7755,-1.7762,-1.7765,-1.7741,-1.7741,-1.7742,-1.7756,0,-1.7854,-1.7848,-1.7835,-1.7833,-1.7829,-1.7813,-1.7811,-1.7801,-1.7792,-1.7787,-1.7777,-1.7772,-1.7761,-1.7757,-1.7757,-1.7747,-1.7752,-1.7745,-1.774,-1.774,-1.7745,-1.7767,-1.7775,-1.7789,-1.7758,-1.7758,-1.7758,0,-1.7868,-1.786,-1.7858,-1.7844,-1.7841,-1.784,-1.7831,-1.7826,-1.7815,-1.7809,-1.7802,-1.7791,-1.7788,-1.7778,-1.7774,-1.777,-1.7767,-1.7761,-1.7762,-1.7762,-1.7751,-1.7769,-1.7793,-1.7796,-1.7761,-1.776,-1.776,0,-1.7889,-1.7878,-1.7876,-1.7871,-1.7854,-1.7853,-1.7846,-1.7835,-1.783,-1.7823,-1.782,-1.7812,-1.7808,-1.7802,-1.7789,-1.7783,-1.7787,-1.7776,-1.7783,-1.7783,-1.7785,-1.7786,-1.7811,-1.7781,-1.7781,-1.7781,-1.7781,0,-1.7905,-1.7905,-1.7885,-1.7884,-1.7884,-1.7868,-1.7869,-1.786,-1.785,-1.7848,-1.7833,-1.7831,-1.7813,-1.7809,-1.7799,-1.7799,-1.7796,-1.7792,-1.7789,-1.7794,-1.7795,-1.7793,-1.7792,-1.7782,-1.7782,-1.7781,-1.7781,0,-1.7929,-1.7916,-1.7913,-1.7897,-1.7893,-1.7894,-1.788,-1.7879,-1.7869,-1.7866,-1.7864,-1.7849,-1.7844,-1.783,-1.7821,-1.7814,-1.7817,-1.7811,-1.7821,-1.7819,-1.7828,-1.7828,-1.7854,-1.7857,-1.7824,-1.7824,-1.7824,0,-1.7941,-1.7941,-1.7925,-1.7923,-1.7916,-1.7912,-1.7907,-1.7892,-1.7888,-1.7877,-1.7877,-1.787,-1.7865,-1.7857,-1.7845,-1.7839,-1.7834,-1.7843,-1.7833,-1.7838,-1.7836,-1.7837,-1.7837,-1.7846,-1.7847,-1.7847,-1.7847,0,-1.7964,-1.7957,-1.7952,-1.7944,-1.794,-1.7933,-1.7925,-1.7924,-1.7907,-1.7903,-1.7898,-1.7893,-1.7884,-1.7879,-1.7871,-1.7864,-1.7853,-1.7851,-1.7852,-1.7858,-1.7864,-1.7862,-1.7829,-1.785,-1.785,-1.785,-1.785,-1.785,-1.7983,-1.7983,-1.7972,-1.7967,-1.7959,-1.7953,-1.7951,-1.7941,-1.7936,-1.7928,-1.7919,-1.7915,-1.7905,-1.7893,-1.7887,-1.7884,-1.7878,-1.788,-1.7881,-1.7882,-1.7885,-1.7863,-1.7882,-1.7882,-1.7882,-1.7882,-1.7882,0,-1.8007,-1.7999,-1.7994,-1.7984,-1.798,-1.797,-1.7961,-1.7959,-1.7956,-1.7947,-1.7942,-1.7936,-1.7931,-1.7919,-1.7912,-1.7913,-1.7908,-1.7912,-1.7912,-1.7911,-1.7889,-1.7889,-1.7916,-1.7916,-1.7916,-1.7916,-1.7916,-1.7916,-1.8018,-1.8018,-1.801,-1.8006,-1.7998,-1.7994,-1.799,-1.7985,-1.7978,-1.7972,-1.7968,-1.796,-1.795,-1.7943,-1.7938,-1.7935,-1.7934,-1.794,-1.7935,-1.7916,-1.7912,-1.7909,-1.7909,-1.7939,-1.7939,-1.7957,-1.7958,-1.7958]},{"header":{"parameterUnit":"m.s-1","parameterCategory":1,"la1":30.2991,"la2":30.254,"lo1":-89.0895,"lo2":-89.0444,"dy":0.0017,"dx":0.0017,"nx":28,"ny":28,"refTime":"2024-10-19T03:00:00:Z","depth":0,"parameterNumber":3,"parameterNumberName":"V-component_of_WINDS"},"data":[0,0,0,0,0,0,0,0,0,0,0,0,0,0,0,0,0,0,0,0,0,0,0,0,0,0,0,0,0,0,0,0,0,0,0,0,0,0,0,0,0,0,0,0,0,0,0,0,0,0,0,0,0,0,0,0,0,0,-1.175,-1.1751,0,-1.1819,-1.182,-1.1821,-1.1875,-1.1876,-1.1876,-1.1877,-1.1947,-1.1948,-1.195,0,0,0,0,0,0,0,0,0,0,0,0,0,-1.1667,-1.1668,-1.175,-1.1751,-1.1752,-1.1819,-1.182,-1.1821,-1.1875,-1.1876,-1.1877,-1.1877,-1.1947,-1.1948,-1.195,0,0,0,0,0,0,0,0,0,0,0,0,0,-1.1716,-1.1669,-1.175,-1.1787,-1.1791,-1.1819,-1.182,-1.1821,-1.1875,-1.1876,-1.1877,-1.1878,-1.1946,-1.1948,-1.195,-1.1946,0,0,-1.1956,-1.1957,0,0,0,0,0,0,0,0,-1.1713,-1.1719,-1.1781,-1.1785,-1.1789,-1.184,-1.1816,-1.1863,-1.1875,-1.1843,-1.1877,-1.1878,-1.1911,-1.1916,-1.1927,-1.195,-1.1953,-1.1957,-1.1958,-1.1959,-1.1959,0,0,0,0,0,0,0,-1.171,-1.1716,-1.1778,-1.1782,-1.1787,-1.1801,-1.1809,-1.1825,-1.1871,-1.1846,-1.185,-1.1858,-1.1913,-1.1925,-1.1929,-1.1954,-1.1956,-1.1958,-1.196,-1.196,-1.198,-1.1979,0,0,0,0,0,0,-1.1701,-1.1713,-1.1775,-1.178,-1.1752,-1.1802,-1.181,-1.1823,-1.1871,-1.188,-1.1857,-1.186,-1.1921,-1.1926,-1.1931,-1.1933,-1.1959,-1.1961,-1.1962,-1.1981,-1.198,-1.1979,0,0,0,0,0,0,-1.1698,-1.1706,-1.1773,-1.1748,-1.1757,-1.1802,-1.1815,-1.1823,-1.1835,-1.188,-1.1888,-1.186,-1.1922,-1.1929,-1.1943,-1.1936,-1.1961,-1.1963,-1.1981,-1.198,-1.1979,-1.1933,0,0,0,0,0,0,-1.1696,-1.1704,-1.1703,-1.1747,-1.1758,-1.1782,-1.1815,-1.1824,-1.1839,-1.1843,-1.1885,-1.1893,-1.1923,-1.194,-1.1945,-1.1939,-1.1965,-1.1982,-1.1981,-1.198,-1.1935,-1.193,-1.1926,0,0,0,0,0,-1.1693,-1.1687,-1.1703,-1.171,-1.1758,-1.1782,-1.1788,-1.1823,-1.1838,-1.1837,-1.1866,-1.1891,-1.1935,-1.1941,-1.1947,-1.1941,-1.1983,-1.1981,-1.198,-1.1937,-1.1931,-1.1926,0,0,0,0,0,0,-1.164,-1.1693,-1.1711,-1.1719,-1.1746,-1.1791,-1.1791,-1.1815,-1.1838,-1.1841,-1.1883,-1.1892,-1.1903,-1.1923,-1.1928,-1.1942,-1.1962,-1.1962,-1.1928,-1.1923,-1.1918,-1.1914,-1.1967,0,0,0,0,0,-1.1629,-1.1644,-1.169,-1.1693,-1.1705,-1.1746,-1.1757,-1.1782,-1.1811,-1.1822,-1.1852,-1.1879,-1.19,-1.1912,-1.1933,-1.1938,-1.1949,-1.1938,-1.1933,-1.1929,-1.1929,-1.1936,-1.1932,-1.1974,-1.1974,-1.1974,0,0,-1.1607,-1.1638,-1.1645,-1.1683,-1.1706,-1.1722,-1.1755,-1.1769,-1.1781,-1.1825,-1.1841,-1.1863,-1.1897,-1.1907,-1.1913,-1.1925,-1.192,-1.1927,-1.1924,-1.1926,-1.1934,-1.193,-1.1926,-1.1973,-1.1973,-1.1973,0,0,-1.1576,-1.16,-1.1606,-1.1629,-1.1664,-1.1692,-1.1693,-1.1735,-1.1752,-1.1769,-1.1803,-1.1818,-1.1851,-1.1874,-1.189,-1.1869,-1.1894,-1.1875,-1.1851,-1.1857,-1.1854,-1.1852,-1.1846,-1.1843,-1.1874,-1.1874,-1.1874,0,-1.1544,-1.1569,-1.1606,-1.1619,-1.1636,-1.1676,-1.1684,-1.1704,-1.1744,-1.1755,-1.1767,-1.1811,-1.1836,-1.1854,-1.1849,-1.186,-1.1864,-1.1871,-1.1852,-1.1849,-1.1847,-1.1843,-1.184,-1.1871,-1.1872,-1.1872,-1.1872,0,-1.1529,-1.1546,-1.1547,-1.1586,-1.1602,-1.1612,-1.1651,-1.1663,-1.1687,-1.1713,-1.1731,-1.1762,-1.1792,-1.1797,-1.1819,-1.1819,-1.1825,-1.1844,-1.1866,-1.184,-1.1837,-1.1835,-1.1868,-1.1869,-1.1869,-1.187,0,0,-1.1467,-1.1527,-1.1527,-1.1546,-1.1589,-1.1602,-1.1615,-1.1644,-1.1654,-1.168,-1.1693,-1.1721,-1.174,-1.1758,-1.1783,-1.1788,-1.1773,-1.1807,-1.1808,-1.1801,-1.1776,-1.1763,-1.176,-1.1789,-1.1789,-1.1788,-1.1774,0,-1.1444,-1.1469,-1.1503,-1.1517,-1.1534,-1.1573,-1.1584,-1.1612,-1.1637,-1.1656,-1.1683,-1.1703,-1.1725,-1.1736,-1.1743,-1.1773,-1.1768,-1.1774,-1.1802,-1.1803,-1.1795,-1.1758,-1.1744,-1.1729,-1.1773,-1.1772,-1.1772,0,-1.142,-1.1446,-1.1461,-1.1505,-1.1513,-1.1522,-1.1553,-1.1569,-1.1602,-1.162,-1.1641,-1.1669,-1.1686,-1.1704,-1.1728,-1.1731,-1.1745,-1.1761,-1.1762,-1.1767,-1.1787,-1.1764,-1.1725,-1.1723,-1.177,-1.177,-1.177,0,-1.1376,-1.1414,-1.1429,-1.1443,-1.1494,-1.15,-1.1521,-1.1554,-1.157,-1.1597,-1.1608,-1.1635,-1.1651,-1.1672,-1.1707,-1.1717,-1.1728,-1.1749,-1.1745,-1.1744,-1.1747,-1.1746,-1.171,-1.1752,-1.1752,-1.1752,-1.1752,0,-1.1347,-1.1356,-1.141,-1.1419,-1.1431,-1.147,-1.148,-1.1505,-1.1535,-1.155,-1.1585,-1.1599,-1.1644,-1.1663,-1.1691,-1.1708,-1.1714,-1.173,-1.1737,-1.1728,-1.1726,-1.1738,-1.1741,-1.1751,-1.1751,-1.1752,-1.1752,0,-1.13,-1.1336,-1.1356,-1.1402,-1.1414,-1.142,-1.146,-1.1471,-1.1499,-1.1518,-1.1525,-1.1568,-1.1593,-1.163,-1.1665,-1.1684,-1.1697,-1.1708,-1.1686,-1.1691,-1.1686,-1.1686,-1.1658,-1.1657,-1.1697,-1.1696,-1.1696,0,-1.128,-1.1288,-1.1336,-1.1349,-1.137,-1.139,-1.1407,-1.1446,-1.1463,-1.1501,-1.1508,-1.1536,-1.156,-1.1598,-1.1633,-1.1661,-1.1674,-1.1662,-1.1678,-1.1669,-1.1676,-1.1676,-1.1678,-1.1659,-1.1658,-1.1657,-1.1657,0,-1.1243,-1.1261,-1.1284,-1.1314,-1.1333,-1.1358,-1.1385,-1.1394,-1.1439,-1.1456,-1.1482,-1.1501,-1.1538,-1.1566,-1.1599,-1.1621,-1.1647,-1.1651,-1.1652,-1.1644,-1.1632,-1.164,-1.1678,-1.1652,-1.1653,-1.1653,-1.1653,-1.1654,-1.121,-1.122,-1.1256,-1.1281,-1.1306,-1.133,-1.1344,-1.1373,-1.1396,-1.143,-1.1452,-1.1477,-1.1511,-1.1558,-1.158,-1.1601,-1.1611,-1.1612,-1.1613,-1.1613,-1.161,-1.1627,-1.1606,-1.1607,-1.1607,-1.1607,-1.1607,0,-1.1176,-1.1202,-1.1224,-1.1262,-1.1282,-1.1304,-1.1336,-1.1351,-1.1373,-1.1403,-1.1427,-1.1458,-1.1485,-1.1522,-1.1553,-1.1562,-1.1575,-1.1569,-1.157,-1.1575,-1.1598,-1.1595,-1.1558,-1.1558,-1.1558,-1.1558,-1.1558,-1.1558,-1.1161,-1.118,-1.1202,-1.1234,-1.1259,-1.1285,-1.1301,-1.1324,-1.1349,-1.1382,-1.1405,-1.1429,-1.1463,-1.1496,-1.1522,-1.1533,-1.1543,-1.1534,-1.1548,-1.1569,-1.1573,-1.1577,-1.1575,-1.1535,-1.1535,-1.1524,-1.1524,-1.1523]}]]